Main page
METAR-TAF:

METAR-TAF

Airports :

Akanu Ibiam International Airport

Enugu, Nigeria

latitude: 06-28N, longitude: 007-33E, elevation: 137 m

Current weather observation

The report was made 1 hour and 10 minutes ago, at 17:00 UTC
Wind 10 kt from the North/Northwest
Temperature 32°C
Humidity 52%
Pressure 1006 hPa
Visibility 10 km or more
Broken clouds at a height of 1400 ft
Few clouds at a height of 2000 ft, Cumulonimbus.
thunderstorm

METAR: DNEN 291700Z 33010KT 9999 TS BKN014 FEW020CB 32/21 Q1006 TEMPO 5000 -TSRA

Time: 19:10 (18:10 UTC)


TAF: missing

Weather observations and forecasts of more than 4000 airports (METAR and TAF reports).

The available stations are represented by yellow and red dots on the map.

Hover mouse over dot to see the name of the station.

Then click to see weather observations and forecasts.

To change the map : click on the green buttons with a black cross to zoom in, on the green button with a dash to zoom out, or on the green arrows for adjacent maps.


METAR-TAF: